Time,TemperatureF,DewpointF,PressureIn,WindDirection,WindDirectionDegrees,WindSpeedMPH,WindSpeedGustMPH,Humidity,HourlyPrecipIn,Conditions,Clouds,dailyrainin,SoftwareType,DateUTC
2013-06-12 00:03:00,70.0,62.8,28.61,East,81,4.0,0.0,78,0.00,,,-99.99,FreeWX-Wi 1.01,2013-06-12 05:03:00,
2013-06-12 00:08:00,70.0,62.8,28.61,East,81,4.0,0.0,78,0.00,,,-99.99,FreeWX-Wi 1.01,2013-06-12 05:08:00,
2013-06-12 00:13:00,69.8,63.0,28.61,East,81,4.0,0.0,79,0.00,,,-99.99,FreeWX-Wi 1.01,2013-06-12 05:13:00,
2013-06-12 00:18:00,69.8,63.0,28.61,East,80,4.0,4.9,79,0.00,,,-99.99,FreeWX-Wi 1.01,2013-06-12 05:18:00,
2013-06-12 00:23:00,69.6,63.1,28.61,ENE,78,4.0,6.3,80,0.00,,,-99.99,FreeWX-Wi 1.01,2013-06-12 05:23:00,
2013-06-12 00:28:00,69.6,63.1,28.61,ENE,77,4.0,4.0,80,0.00,,,-99.99,FreeWX-Wi 1.01,2013-06-12 05:28:00,
2013-06-12 00:33:00,69.4,63.3,28.61,ENE,77,4.0,0.0,81,0.00,,,-99.99,FreeWX-Wi 1.01,2013-06-12 05:33:00,
2013-06-12 00:38:00,69.6,63.5,28.61,ENE,76,4.0,6.3,81,0.00,,,-99.99,FreeWX-Wi 1.01,2013-06-12 05:38:00,
2013-06-12 00:43:00,69.8,63.0,28.61,ENE,75,4.0,6.3,79,0.00,,,-99.99,FreeWX-Wi 1.01,2013-06-12 05:43:00,
2013-06-12 00:49:00,69.6,63.1,28.58,ENE,75,4.0,0.0,80,0.00,,,-99.99,FreeWX-Wi 1.01,2013-06-12 05:49:00,
2013-06-12 00:54:00,69.4,63.0,28.58,ENE,75,4.0,8.7,80,0.00,,,-99.99,FreeWX-Wi 1.01,2013-06-12 05:54:00,
2013-06-12 00:59:00,69.4,63.3,28.58,ENE,75,4.0,8.1,81,0.00,,,-99.99,FreeWX-Wi 1.01,2013-06-12 05:59:00,
2013-06-12 01:04:00,69.4,63.3,28.58,ENE,75,4.0,0.0,81,0.00,,,-99.99,FreeWX-Wi 1.01,2013-06-12 06:04:00,
2013-06-12 01:09:00,69.6,63.5,28.58,ENE,75,4.0,6.3,81,0.00,,,-99.99,FreeWX-Wi 1.01,2013-06-12 06:09:00,
2013-06-12 01:14:00,69.8,63.3,28.58,ENE,73,4.0,4.9,80,0.00,,,-99.99,FreeWX-Wi 1.01,2013-06-12 06:14:00,
2013-06-12 01:19:00,69.6,63.1,28.61,ENE,73,4.0,0.0,80,0.00,,,-99.99,FreeWX-Wi 1.01,2013-06-12 06:19:00,
2013-06-12 01:24:00,69.4,63.0,28.61,ENE,73,4.0,0.0,80,0.00,,,-99.99,FreeWX-Wi 1.01,2013-06-12 06:24:00,
2013-06-12 01:29:00,69.4,62.6,28.61,ENE,72,4.0,4.0,79,0.00,,,-99.99,FreeWX-Wi 1.01,2013-06-12 06:29:00,
2013-06-12 01:34:00,69.4,62.6,28.61,ENE,71,4.0,4.9,79,0.00,,,-99.99,FreeWX-Wi 1.01,2013-06-12 06:34:00,
2013-06-12 01:39:00,69.3,62.4,28.61,ENE,71,4.0,0.0,79,0.00,,,-99.99,FreeWX-Wi 1.01,2013-06-12 06:39:00,
2013-06-12 01:44:00,69.1,62.6,28.61,ENE,68,4.0,6.3,80,0.00,,,-99.99,FreeWX-Wi 1.01,2013-06-12 06:44:00,
2013-06-12 01:50:00,69.3,62.8,28.64,ENE,67,4.0,5.8,80,0.00,,,-99.99,FreeWX-Wi 1.01,2013-06-12 06:50:00,
2013-06-12 01:55:00,69.3,62.4,28.64,ENE,67,4.0,4.0,79,0.00,,,-99.99,FreeWX-Wi 1.01,2013-06-12 06:55:00,
2013-06-12 02:00:00,69.6,62.1,28.64,ENE,66,4.0,11.0,77,0.00,,,-99.99,FreeWX-Wi 1.01,2013-06-12 07:00:00,
2013-06-12 02:05:00,69.6,61.3,28.61,ENE,66,4.0,0.0,75,0.00,,,-99.99,FreeWX-Wi 1.01,2013-06-12 07:05:00,
2013-06-12 02:10:00,69.4,61.5,28.61,ENE,66,4.0,0.0,76,0.00,,,-99.99,FreeWX-Wi 1.01,2013-06-12 07:10:00,
2013-06-12 02:15:00,69.1,61.5,28.58,ENE,64,4.0,10.1,77,0.00,,,-99.99,FreeWX-Wi 1.01,2013-06-12 07:15:00,
2013-06-12 02:20:00,69.3,61.3,28.58,ENE,64,4.0,0.0,76,0.00,,,-99.99,FreeWX-Wi 1.01,2013-06-12 07:20:00,
2013-06-12 02:25:00,69.3,61.0,28.58,ENE,64,4.0,0.0,75,0.00,,,-99.99,FreeWX-Wi 1.01,2013-06-12 07:25:00,
2013-06-12 02:30:00,69.1,61.2,28.58,ENE,64,4.0,0.0,76,0.00,,,-99.99,FreeWX-Wi 1.01,2013-06-12 07:30:00,
2013-06-12 02:36:00,69.1,61.5,28.58,ENE,62,4.0,10.1,77,0.00,,,-99.99,FreeWX-Wi 1.01,2013-06-12 07:36:00,
2013-06-12 02:41:00,69.3,61.0,28.58,ENE,62,4.0,6.3,75,0.00,,,-99.99,FreeWX-Wi 1.01,2013-06-12 07:41:00,
2013-06-12 02:46:00,69.3,60.6,28.58,ENE,62,4.0,6.3,74,0.00,,,-99.99,FreeWX-Wi 1.01,2013-06-12 07:46:00,
2013-06-12 02:51:00,69.3,60.3,28.58,ENE,62,4.0,7.6,73,0.00,,,-99.99,FreeWX-Wi 1.01,2013-06-12 07:51:00,
2013-06-12 02:56:00,69.1,60.4,28.58,ENE,62,4.0,8.3,74,0.00,,,-99.99,FreeWX-Wi 1.01,2013-06-12 07:56:00,
2013-06-12 03:01:00,68.9,61.0,28.58,ENE,64,5.0,8.7,76,0.00,,,-99.99,FreeWX-Wi 1.01,2013-06-12 08:01:00,
2013-06-12 03:06:00,69.1,61.2,28.58,ENE,66,5.0,8.3,76,0.00,,,-99.99,FreeWX-Wi 1.01,2013-06-12 08:06:00,
2013-06-12 03:11:00,69.1,60.8,28.58,ENE,66,5.0,7.6,75,0.00,,,-99.99,FreeWX-Wi 1.01,2013-06-12 08:11:00,
2013-06-12 03:16:00,68.9,61.3,28.58,ENE,66,5.0,0.0,77,0.00,,,-99.99,FreeWX-Wi 1.01,2013-06-12 08:16:00,
2013-06-12 03:21:00,68.9,61.0,28.58,ENE,66,5.0,0.0,76,0.00,,,-99.99,FreeWX-Wi 1.01,2013-06-12 08:21:00,
2013-06-12 03:26:00,69.1,60.8,28.58,ENE,66,5.0,0.0,75,0.00,,,-99.99,FreeWX-Wi 1.01,2013-06-12 08:26:00,
2013-06-12 03:32:00,69.1,60.8,28.55,ENE,65,5.0,7.6,75,0.00,,,-99.99,FreeWX-Wi 1.01,2013-06-12 08:32:00,
2013-06-12 03:37:00,69.1,60.4,28.55,ENE,65,5.0,0.0,74,0.00,,,-99.99,FreeWX-Wi 1.01,2013-06-12 08:37:00,
2013-06-12 03:42:00,69.1,60.4,28.55,ENE,69,6.0,14.1,74,0.00,,,-99.99,FreeWX-Wi 1.01,2013-06-12 08:42:00,
2013-06-12 03:47:00,67.8,62.8,28.50,ENE,73,7.0,17.9,84,0.04,,,-99.99,FreeWX-Wi 1.01,2013-06-12 08:47:00,
2013-06-12 03:52:00,67.5,64.4,28.50,East,79,8.0,22.8,90,0.04,,,-99.99,FreeWX-Wi 1.01,2013-06-12 08:52:00,
2013-06-12 03:57:00,67.5,64.8,28.50,East,80,8.0,18.8,91,0.12,,,-99.99,FreeWX-Wi 1.01,2013-06-12 08:57:00,
2013-06-12 04:02:00,67.5,65.1,28.52,East,80,8.0,0.0,92,0.12,,,-99.99,FreeWX-Wi 1.01,2013-06-12 09:02:00,
2013-06-12 04:07:00,67.5,65.1,28.52,East,80,8.0,0.0,92,0.12,,,-99.99,FreeWX-Wi 1.01,2013-06-12 09:07:00,
2013-06-12 04:12:00,67.5,65.1,28.52,East,81,8.0,10.1,92,0.12,,,-99.99,FreeWX-Wi 1.01,2013-06-12 09:12:00,
2013-06-12 04:17:00,67.5,65.3,28.58,East,81,8.0,0.0,93,0.12,,,-99.99,FreeWX-Wi 1.01,2013-06-12 09:17:00,
2013-06-12 04:22:00,67.5,65.3,28.58,East,81,8.0,0.0,93,0.12,,,-99.99,FreeWX-Wi 1.01,2013-06-12 09:22:00,
2013-06-12 04:27:00,67.5,65.7,28.58,East,81,8.0,0.0,94,0.12,,,-99.99,FreeWX-Wi 1.01,2013-06-12 09:27:00,
2013-06-12 04:32:00,67.5,65.7,28.58,East,81,8.0,0.0,94,0.16,,,-99.99,FreeWX-Wi 1.01,2013-06-12 09:32:00,
2013-06-12 04:37:00,67.5,66.0,28.58,East,84,8.0,8.3,95,0.16,,,-99.99,FreeWX-Wi 1.01,2013-06-12 09:37:00,
2013-06-12 04:42:00,67.5,66.2,28.58,East,95,9.0,11.0,96,0.20,,,-99.99,FreeWX-Wi 1.01,2013-06-12 09:42:00,
2013-06-12 04:48:00,67.3,66.0,28.61,ESE,118,9.0,9.0,96,0.20,,,-99.99,FreeWX-Wi 1.01,2013-06-12 09:48:00,
2013-06-12 04:53:00,67.3,66.0,28.61,SE,134,9.0,12.3,96,0.12,,,-99.99,FreeWX-Wi 1.01,2013-06-12 09:53:00,
2013-06-12 04:58:00,67.6,66.7,28.61,SE,143,10.0,13.2,97,0.12,,,-99.99,FreeWX-Wi 1.01,2013-06-12 09:58:00,
2013-06-12 05:03:00,67.6,66.7,28.64,SSE,156,9.0,11.0,97,0.20,,,-99.99,FreeWX-Wi 1.01,2013-06-12 10:03:00,
2013-06-12 05:08:00,67.6,67.1,28.64,SSE,159,8.0,12.8,98,0.20,,,-99.99,FreeWX-Wi 1.01,2013-06-12 10:08:00,
2013-06-12 05:13:00,67.6,67.1,28.64,SSE,156,9.0,13.2,98,0.20,,,-99.99,FreeWX-Wi 1.01,2013-06-12 10:13:00,
2013-06-12 05:18:00,67.6,67.1,28.64,SSE,155,9.0,14.5,98,0.47,,,-99.99,FreeWX-Wi 1.01,2013-06-12 10:18:00,
2013-06-12 05:23:00,67.6,67.1,28.64,SSE,163,9.0,11.0,98,0.51,,,-99.99,FreeWX-Wi 1.01,2013-06-12 10:23:00,
2013-06-12 05:28:00,67.6,67.1,28.64,SSE,164,9.0,17.0,98,0.47,,,-99.99,FreeWX-Wi 1.01,2013-06-12 10:28:00,
2013-06-12 05:33:00,67.3,66.7,28.58,SSE,158,10.0,21.0,98,0.47,,,-99.99,FreeWX-Wi 1.01,2013-06-12 10:33:00,
2013-06-12 05:39:00,66.7,66.2,28.58,SSE,151,11.0,22.4,98,0.47,,,-99.99,FreeWX-Wi 1.01,2013-06-12 10:39:00,
2013-06-12 05:44:00,66.6,65.7,28.58,SE,145,12.0,21.0,97,0.43,,,-99.99,FreeWX-Wi 1.01,2013-06-12 10:44:00,
2013-06-12 05:49:00,66.7,65.5,28.47,SE,139,14.0,23.7,96,0.39,,,-99.99,FreeWX-Wi 1.01,2013-06-12 10:49:00,
2013-06-12 05:54:00,66.7,65.5,28.47,SE,132,15.0,25.5,96,0.39,,,-99.99,FreeWX-Wi 1.01,2013-06-12 10:54:00,
2013-06-12 05:59:00,66.6,65.1,28.47,SE,125,16.0,22.4,95,0.31,,,-99.99,FreeWX-Wi 1.01,2013-06-12 10:59:00,
2013-06-12 06:04:00,66.6,64.8,28.50,SE,124,17.0,20.1,94,0.31,,,-99.99,FreeWX-Wi 1.01,2013-06-12 11:04:00,
2013-06-12 06:09:00,66.9,65.5,28.50,SE,124,17.0,21.5,95,0.43,,,-99.99,FreeWX-Wi 1.01,2013-06-12 11:09:00,
2013-06-12 06:14:00,66.7,64.9,28.50,ESE,122,18.0,23.3,94,0.16,,,-99.99,FreeWX-Wi 1.01,2013-06-12 11:14:00,
2013-06-12 06:19:00,66.7,64.4,28.50,ESE,123,18.0,23.3,92,0.12,,,-99.99,FreeWX-Wi 1.01,2013-06-12 11:19:00,
2013-06-12 06:24:00,66.9,64.6,28.50,SE,124,17.0,19.7,92,0.12,,,-99.99,FreeWX-Wi 1.01,2013-06-12 11:24:00,
2013-06-12 06:29:00,67.8,65.1,28.50,SE,126,18.0,28.4,91,0.12,,,-99.99,FreeWX-Wi 1.01,2013-06-12 11:29:00,
2013-06-12 06:35:00,67.8,65.5,28.41,SE,127,19.0,26.2,92,0.12,,,-99.99,FreeWX-Wi 1.01,2013-06-12 11:35:00,
2013-06-12 06:40:00,67.8,65.1,28.41,SE,129,18.0,22.4,91,0.12,,,-99.99,FreeWX-Wi 1.01,2013-06-12 11:40:00,
2013-06-12 06:45:00,67.8,64.4,28.47,SE,128,18.0,20.1,89,0.12,,,-99.99,FreeWX-Wi 1.01,2013-06-12 11:45:00,
2013-06-12 06:50:00,67.8,63.5,28.47,SE,127,17.0,18.8,86,0.12,,,-99.99,FreeWX-Wi 1.01,2013-06-12 11:50:00,
2013-06-12 06:55:00,68.0,63.3,28.47,SE,128,17.0,18.8,85,0.12,,,-99.99,FreeWX-Wi 1.01,2013-06-12 11:55:00,
2013-06-12 07:00:00,68.2,63.9,28.50,SE,135,15.0,18.8,86,0.12,,,-99.99,FreeWX-Wi 1.01,2013-06-12 12:00:00,
2013-06-12 07:05:00,68.4,64.6,28.50,SE,139,14.0,21.0,88,0.12,,,-99.99,FreeWX-Wi 1.01,2013-06-12 12:05:00,
2013-06-12 07:10:00,68.5,64.2,28.50,SE,142,13.0,19.2,86,0.00,,,-99.99,FreeWX-Wi 1.01,2013-06-12 12:10:00,
2013-06-12 07:15:00,68.7,64.0,28.50,SE,144,13.0,17.9,85,0.00,,,-99.99,FreeWX-Wi 1.01,2013-06-12 12:15:00,
2013-06-12 07:20:00,68.7,63.3,28.50,SE,143,12.0,14.5,83,0.00,,,-99.99,FreeWX-Wi 1.01,2013-06-12 12:20:00,
2013-06-12 07:25:00,68.9,63.5,28.50,SE,140,11.0,11.0,83,0.00,,,-99.99,FreeWX-Wi 1.01,2013-06-12 12:25:00,
2013-06-12 07:31:00,68.9,63.5,28.50,SE,136,10.0,10.0,83,0.00,,,-99.99,FreeWX-Wi 1.01,2013-06-12 12:31:00,
2013-06-12 07:36:00,69.1,63.3,28.50,SE,129,8.0,8.0,82,0.00,,,-99.99,FreeWX-Wi 1.01,2013-06-12 12:36:00,
2013-06-12 07:41:00,69.3,63.1,28.50,ESE,115,7.0,7.0,81,0.00,,,-99.99,FreeWX-Wi 1.01,2013-06-12 12:41:00,
2013-06-12 07:46:00,69.4,63.7,28.50,East,92,5.0,5.8,82,0.00,,,-99.99,FreeWX-Wi 1.01,2013-06-12 12:46:00,
2013-06-12 07:51:00,69.6,64.2,28.50,ENE,59,4.0,6.3,83,0.00,,,-99.99,FreeWX-Wi 1.01,2013-06-12 12:51:00,
2013-06-12 07:56:00,69.8,64.0,28.50,NNE,28,2.0,3.1,82,0.00,,,-99.99,FreeWX-Wi 1.01,2013-06-12 12:56:00,
2013-06-12 08:01:00,70.2,64.4,28.52,North,7,2.0,4.0,82,0.00,,,-99.99,FreeWX-Wi 1.01,2013-06-12 13:01:00,
2013-06-12 08:06:00,70.3,64.6,28.52,North,2,2.0,4.0,82,0.00,,,-99.99,FreeWX-Wi 1.01,2013-06-12 13:06:00,
2013-06-12 08:11:00,70.9,64.8,28.52,North,0,2.0,2.2,81,0.00,,,-99.99,FreeWX-Wi 1.01,2013-06-12 13:11:00,
2013-06-12 08:16:00,71.2,64.0,28.52,North,358,2.0,0.0,78,0.00,,,-99.99,FreeWX-Wi 1.01,2013-06-12 13:16:00,
2013-06-12 08:21:00,72.0,63.7,28.52,North,355,2.0,0.0,75,0.00,,,-99.99,FreeWX-Wi 1.01,2013-06-12 13:21:00,
2013-06-12 08:32:00,73.8,64.6,28.52,North,351,1.0,4.0,73,0.00,,,-99.99,FreeWX-Wi 1.01,2013-06-12 13:32:00,
2013-06-12 08:37:00,73.2,62.4,28.52,North,351,1.0,4.0,69,0.00,,,-99.99,FreeWX-Wi 1.01,2013-06-12 13:37:00,
2013-06-12 08:42:00,73.2,62.1,28.52,North,350,1.0,3.6,68,0.00,,,-99.99,FreeWX-Wi 1.01,2013-06-12 13:42:00,
2013-06-12 08:47:00,73.0,63.1,28.55,NNW,346,1.0,3.6,71,0.00,,,-99.99,FreeWX-Wi 1.01,2013-06-12 13:47:00,
2013-06-12 08:52:00,73.2,62.8,28.55,NNW,344,1.0,2.7,70,0.00,,,-99.99,FreeWX-Wi 1.01,2013-06-12 13:52:00,
2013-06-12 09:02:00,73.9,62.2,28.55,NNW,344,1.0,2.7,67,0.00,,,-99.99,FreeWX-Wi 1.01,2013-06-12 14:02:00,
2013-06-12 09:07:00,73.4,61.0,28.55,NNW,344,1.0,0.0,65,0.00,,,-99.99,FreeWX-Wi 1.01,2013-06-12 14:07:00,
2013-06-12 09:12:00,73.2,60.8,28.55,NNW,344,1.0,0.0,65,0.00,,,-99.99,FreeWX-Wi 1.01,2013-06-12 14:12:00,
2013-06-12 09:17:00,73.8,61.2,28.55,NNW,344,1.0,0.0,65,0.00,,,-99.99,FreeWX-Wi 1.01,2013-06-12 14:17:00,
2013-06-12 09:22:00,73.8,61.2,28.55,NNW,346,1.0,3.1,65,0.00,,,-99.99,FreeWX-Wi 1.01,2013-06-12 14:22:00,
2013-06-12 09:27:00,75.0,63.3,28.55,North,350,1.0,5.8,67,0.00,,,-99.99,FreeWX-Wi 1.01,2013-06-12 14:27:00,
2013-06-12 09:32:00,77.7,61.2,28.55,North,2,1.0,5.4,57,0.00,,,-99.99,FreeWX-Wi 1.01,2013-06-12 14:32:00,
2013-06-12 09:42:00,76.1,59.2,28.55,ENE,64,2.0,6.3,56,0.00,,,-99.99,FreeWX-Wi 1.01,2013-06-12 14:42:00,
2013-06-12 09:53:00,74.1,59.4,28.55,ESE,103,3.0,6.3,60,0.00,,,-99.99,FreeWX-Wi 1.01,2013-06-12 14:53:00,
2013-06-12 09:58:00,74.5,61.5,28.55,ESE,109,3.0,6.3,64,0.00,,,-99.99,FreeWX-Wi 1.01,2013-06-12 14:58:00,
2013-06-12 10:08:00,75.0,59.7,28.55,East,101,4.0,5.8,59,0.00,,,-99.99,FreeWX-Wi 1.01,2013-06-12 15:08:00,
2013-06-12 10:13:00,74.1,58.8,28.55,East,98,4.0,5.8,59,0.00,,,-99.99,FreeWX-Wi 1.01,2013-06-12 15:13:00,
2013-06-12 10:28:00,73.9,59.5,28.55,East,90,4.0,4.0,61,0.00,,,-99.99,FreeWX-Wi 1.01,2013-06-12 15:28:00,
2013-06-12 10:33:00,74.1,62.1,28.55,East,90,4.0,0.0,66,0.00,,,-99.99,FreeWX-Wi 1.01,2013-06-12 15:33:00,
2013-06-12 10:38:00,73.9,59.5,28.55,East,89,4.0,4.0,61,0.00,,,-99.99,FreeWX-Wi 1.01,2013-06-12 15:38:00,
2013-06-12 10:44:00,74.3,59.5,28.55,East,89,4.0,0.0,60,0.00,,,-99.99,FreeWX-Wi 1.01,2013-06-12 15:44:00,
2013-06-12 10:49:00,74.8,61.3,28.55,East,89,4.0,8.1,63,0.00,,,-99.99,FreeWX-Wi 1.01,2013-06-12 15:49:00,
2013-06-12 10:54:00,74.8,60.4,28.55,East,86,4.0,6.3,61,0.00,,,-99.99,FreeWX-Wi 1.01,2013-06-12 15:54:00,
2013-06-12 11:04:00,75.4,61.0,28.52,East,82,4.0,5.4,61,0.00,,,-99.99,FreeWX-Wi 1.01,2013-06-12 16:04:00,
2013-06-12 11:09:00,75.4,60.4,28.52,East,82,4.0,0.0,60,0.00,,,-99.99,FreeWX-Wi 1.01,2013-06-12 16:09:00,
2013-06-12 11:14:00,75.4,60.1,28.52,East,82,4.0,0.0,59,0.00,,,-99.99,FreeWX-Wi 1.01,2013-06-12 16:14:00,
2013-06-12 11:19:00,75.2,61.7,28.52,East,82,4.0,0.0,63,0.00,,,-99.99,FreeWX-Wi 1.01,2013-06-12 16:19:00,
2013-06-12 11:24:00,75.0,59.2,28.52,East,82,4.0,0.0,58,0.00,,,-99.99,FreeWX-Wi 1.01,2013-06-12 16:24:00,
2013-06-12 11:29:00,74.8,60.1,28.52,East,82,4.0,0.0,60,0.00,,,-99.99,FreeWX-Wi 1.01,2013-06-12 16:29:00,
2013-06-12 11:35:00,74.3,62.6,28.52,East,82,4.0,0.0,67,0.00,,,-99.99,FreeWX-Wi 1.01,2013-06-12 16:35:00,
2013-06-12 11:40:00,74.7,63.0,28.52,East,82,4.0,0.0,67,0.00,,,-99.99,FreeWX-Wi 1.01,2013-06-12 16:40:00,
2013-06-12 11:45:00,75.4,63.7,28.52,East,82,4.0,0.0,67,0.00,,,-99.99,FreeWX-Wi 1.01,2013-06-12 16:45:00,
2013-06-12 11:50:00,75.2,61.7,28.52,East,82,4.0,0.0,63,0.00,,,-99.99,FreeWX-Wi 1.01,2013-06-12 16:50:00,
2013-06-12 11:55:00,75.0,61.2,28.52,East,81,4.0,12.3,62,0.00,,,-99.99,FreeWX-Wi 1.01,2013-06-12 16:55:00,
2013-06-12 12:00:00,74.5,61.9,28.52,East,81,4.0,12.8,65,0.00,,,-99.99,FreeWX-Wi 1.01,2013-06-12 17:00:00,
2013-06-12 12:05:00,74.5,62.4,28.52,East,81,4.0,0.0,66,0.00,,,-99.99,FreeWX-Wi 1.01,2013-06-12 17:05:00,
2013-06-12 12:10:00,74.3,62.2,28.52,East,80,4.0,4.0,66,0.00,,,-99.99,FreeWX-Wi 1.01,2013-06-12 17:10:00,
2013-06-12 12:15:00,74.5,61.9,28.52,East,80,4.0,6.7,65,0.00,,,-99.99,FreeWX-Wi 1.01,2013-06-12 17:15:00,
2013-06-12 12:20:00,74.7,62.6,28.52,East,80,4.0,0.0,66,0.00,,,-99.99,FreeWX-Wi 1.01,2013-06-12 17:20:00,
2013-06-12 12:25:00,74.8,61.3,28.52,East,80,4.0,7.6,63,0.00,,,-99.99,FreeWX-Wi 1.01,2013-06-12 17:25:00,
2013-06-12 12:31:00,75.0,61.5,28.52,ENE,78,4.0,7.6,63,0.00,,,-99.99,FreeWX-Wi 1.01,2013-06-12 17:31:00,
2013-06-12 12:36:00,75.4,61.0,28.52,ENE,75,5.0,8.1,61,0.00,,,-99.99,FreeWX-Wi 1.01,2013-06-12 17:36:00,
2013-06-12 12:46:00,76.6,63.1,28.52,ENE,74,6.0,10.5,63,0.00,,,-99.99,FreeWX-Wi 1.01,2013-06-12 17:46:00,
2013-06-12 12:56:00,77.0,62.4,28.52,ENE,72,6.0,8.3,61,0.00,,,-99.99,FreeWX-Wi 1.01,2013-06-12 17:56:00,
2013-06-12 13:01:00,76.5,60.1,28.50,ENE,70,6.0,8.7,57,0.00,,,-99.99,FreeWX-Wi 1.01,2013-06-12 18:01:00,
2013-06-12 13:11:00,77.7,62.8,28.50,ENE,71,6.0,9.2,60,0.00,,,-99.99,FreeWX-Wi 1.01,2013-06-12 18:11:00,
2013-06-12 13:26:00,77.4,59.4,28.50,ENE,71,6.0,8.1,54,0.00,,,-99.99,FreeWX-Wi 1.01,2013-06-12 18:26:00,
2013-06-12 13:31:00,77.7,61.2,28.52,ENE,72,6.0,8.1,57,0.00,,,-99.99,FreeWX-Wi 1.01,2013-06-12 18:31:00,
2013-06-12 13:36:00,77.7,62.2,28.52,ENE,72,6.0,6.0,59,0.00,,,-99.99,FreeWX-Wi 1.01,2013-06-12 18:36:00,
2013-06-12 13:41:00,77.2,59.2,28.52,ENE,73,6.0,6.3,54,0.00,,,-99.99,FreeWX-Wi 1.01,2013-06-12 18:41:00,
2013-06-12 13:47:00,77.2,60.3,28.50,ENE,73,6.0,0.0,56,0.00,,,-99.99,FreeWX-Wi 1.01,2013-06-12 18:47:00,
2013-06-12 13:52:00,77.2,61.7,28.50,ENE,73,6.0,0.0,59,0.00,,,-99.99,FreeWX-Wi 1.01,2013-06-12 18:52:00,
2013-06-12 13:57:00,77.2,60.3,28.50,ENE,73,6.0,0.0,56,0.00,,,-99.99,FreeWX-Wi 1.01,2013-06-12 18:57:00,
2013-06-12 14:02:00,77.2,61.7,28.50,ENE,71,6.0,7.2,59,0.00,,,-99.99,FreeWX-Wi 1.01,2013-06-12 19:02:00,
2013-06-12 14:07:00,77.0,62.1,28.50,ENE,71,6.0,6.0,60,0.00,,,-99.99,FreeWX-Wi 1.01,2013-06-12 19:07:00,
2013-06-12 14:12:00,75.9,61.9,28.50,ENE,70,6.0,8.1,62,0.00,,,-99.99,FreeWX-Wi 1.01,2013-06-12 19:12:00,
2013-06-12 14:17:00,75.2,62.2,28.50,ENE,70,6.0,0.0,64,0.00,,,-99.99,FreeWX-Wi 1.01,2013-06-12 19:17:00,
2013-06-12 14:22:00,75.0,62.4,28.50,ENE,70,6.0,0.0,65,0.00,,,-99.99,FreeWX-Wi 1.01,2013-06-12 19:22:00,
2013-06-12 14:27:00,74.7,62.6,28.50,ENE,70,6.0,0.0,66,0.00,,,-99.99,FreeWX-Wi 1.01,2013-06-12 19:27:00,
2013-06-12 14:32:00,74.5,62.4,28.50,ENE,71,6.0,8.1,66,0.00,,,-99.99,FreeWX-Wi 1.01,2013-06-12 19:32:00,
2013-06-12 14:37:00,74.3,62.2,28.50,ENE,69,6.0,6.3,66,0.00,,,-99.99,FreeWX-Wi 1.01,2013-06-12 19:37:00,
2013-06-12 14:43:00,74.3,62.2,28.50,ENE,69,6.0,6.0,66,0.00,,,-99.99,FreeWX-Wi 1.01,2013-06-12 19:43:00,
2013-06-12 14:48:00,74.1,62.1,28.50,ENE,68,6.0,6.0,66,0.00,,,-99.99,FreeWX-Wi 1.01,2013-06-12 19:48:00,
2013-06-12 14:53:00,74.1,62.1,28.50,ENE,67,6.0,6.0,66,0.00,,,-99.99,FreeWX-Wi 1.01,2013-06-12 19:53:00,
2013-06-12 14:58:00,74.1,62.4,28.50,ENE,66,5.0,6.3,67,0.00,,,-99.99,FreeWX-Wi 1.01,2013-06-12 19:58:00,
2013-06-12 15:03:00,73.9,61.9,28.50,ENE,67,5.0,5.8,66,0.00,,,-99.99,FreeWX-Wi 1.01,2013-06-12 20:03:00,
2013-06-12 15:08:00,73.9,61.9,28.50,ENE,70,6.0,7.6,66,0.00,,,-99.99,FreeWX-Wi 1.01,2013-06-12 20:08:00,
2013-06-12 15:13:00,73.8,61.7,28.50,ENE,71,5.0,5.4,66,0.00,,,-99.99,FreeWX-Wi 1.01,2013-06-12 20:13:00,
2013-06-12 15:18:00,73.8,62.1,28.50,ENE,71,5.0,5.8,67,0.00,,,-99.99,FreeWX-Wi 1.01,2013-06-12 20:18:00,
2013-06-12 15:23:00,73.6,62.8,28.50,ENE,71,5.0,5.4,69,0.00,,,-99.99,FreeWX-Wi 1.01,2013-06-12 20:23:00,
2013-06-12 15:28:00,72.1,64.6,28.50,ENE,71,5.0,7.6,77,0.00,,,-99.99,FreeWX-Wi 1.01,2013-06-12 20:28:00,
2013-06-12 15:33:00,71.8,66.4,28.50,ENE,70,5.0,6.3,83,0.04,,,-99.99,FreeWX-Wi 1.01,2013-06-12 20:33:00,
2013-06-12 15:38:00,71.8,66.7,28.50,ENE,70,5.0,0.0,84,0.04,,,-99.99,FreeWX-Wi 1.01,2013-06-12 20:38:00,
2013-06-12 15:44:00,71.6,66.2,28.50,ENE,69,5.0,6.7,83,0.04,,,-99.99,FreeWX-Wi 1.01,2013-06-12 20:44:00,
2013-06-12 15:49:00,71.4,66.4,28.50,ENE,68,5.0,6.3,84,0.04,,,-99.99,FreeWX-Wi 1.01,2013-06-12 20:49:00,
2013-06-12 16:19:00,73.0,65.8,28.47,ENE,66,5.0,5.8,78,0.08,,,-99.99,FreeWX-Wi 1.01,2013-06-12 21:19:00,
2013-06-12 16:24:00,73.4,64.6,28.47,ENE,66,5.0,0.0,74,0.08,,,-99.99,FreeWX-Wi 1.01,2013-06-12 21:24:00,
2013-06-12 16:29:00,73.6,65.1,28.47,ENE,66,5.0,0.0,75,0.04,,,-99.99,FreeWX-Wi 1.01,2013-06-12 21:29:00,
2013-06-12 16:40:00,73.9,63.9,28.47,ENE,66,5.0,5.8,71,0.04,,,-99.99,FreeWX-Wi 1.01,2013-06-12 21:40:00,
2013-06-12 16:45:00,74.3,63.5,28.47,ENE,65,5.0,5.0,69,0.04,,,-99.99,FreeWX-Wi 1.01,2013-06-12 21:45:00,
2013-06-12 16:50:00,74.8,63.5,28.47,ENE,63,5.0,8.3,68,0.00,,,-99.99,FreeWX-Wi 1.01,2013-06-12 21:50:00,
2013-06-12 16:55:00,74.5,63.1,28.47,ENE,66,5.0,8.1,68,0.00,,,-99.99,FreeWX-Wi 1.01,2013-06-12 21:55:00,
2013-06-12 17:00:00,74.1,62.8,28.47,ENE,67,5.0,10.5,68,0.00,,,-99.99,FreeWX-Wi 1.01,2013-06-12 22:00:00,
2013-06-12 17:05:00,73.8,62.1,28.47,ENE,64,5.0,8.1,67,0.00,,,-99.99,FreeWX-Wi 1.01,2013-06-12 22:05:00,
2013-06-12 17:10:00,73.8,61.7,28.47,ENE,64,5.0,8.3,66,0.00,,,-99.99,FreeWX-Wi 1.01,2013-06-12 22:10:00,
2013-06-12 17:15:00,73.6,63.1,28.47,ENE,64,6.0,9.6,70,0.00,,,-99.99,FreeWX-Wi 1.01,2013-06-12 22:15:00,
2013-06-12 17:20:00,73.4,62.6,28.47,ENE,62,6.0,9.6,69,0.00,,,-99.99,FreeWX-Wi 1.01,2013-06-12 22:20:00,
2013-06-12 17:25:00,73.2,62.8,28.47,ENE,65,6.0,7.6,70,0.00,,,-99.99,FreeWX-Wi 1.01,2013-06-12 22:25:00,
2013-06-12 17:30:00,73.2,62.8,28.44,ENE,66,6.0,9.6,70,0.00,,,-99.99,FreeWX-Wi 1.01,2013-06-12 22:30:00,
2013-06-12 17:35:00,73.0,62.2,28.44,ENE,67,6.0,13.6,69,0.00,,,-99.99,FreeWX-Wi 1.01,2013-06-12 22:35:00,
2013-06-12 17:41:00,72.9,61.2,28.44,ENE,69,7.0,14.5,67,0.00,,,-99.99,FreeWX-Wi 1.01,2013-06-12 22:41:00,
2013-06-12 17:46:00,72.7,61.5,28.41,ENE,68,8.0,15.0,68,0.00,,,-99.99,FreeWX-Wi 1.01,2013-06-12 22:46:00,
2013-06-12 17:51:00,72.5,61.3,28.41,ENE,71,8.0,14.1,68,0.00,,,-99.99,FreeWX-Wi 1.01,2013-06-12 22:51:00,
2013-06-12 17:56:00,72.3,61.2,28.41,ENE,69,9.0,17.4,68,0.00,,,-99.99,FreeWX-Wi 1.01,2013-06-12 22:56:00,
2013-06-12 18:01:00,71.8,61.5,28.44,ENE,60,10.0,25.5,70,0.00,,,-99.99,FreeWX-Wi 1.01,2013-06-12 23:01:00,
2013-06-12 18:06:00,71.2,63.3,28.44,NE,47,10.0,12.8,76,0.00,,,-99.99,FreeWX-Wi 1.01,2013-06-12 23:06:00,
2013-06-12 18:11:00,70.0,65.3,28.44,NNE,32,10.0,10.5,85,0.00,,,-99.99,FreeWX-Wi 1.01,2013-06-12 23:11:00,
2013-06-12 18:43:00,67.8,66.0,28.47,NNE,14,12.0,16.8,94,0.00,,,-99.99,FreeWX-Wi 1.01,2013-06-12 23:43:00,
2013-06-12 18:48:00,67.6,65.8,28.47,NNE,14,12.0,16.3,94,0.00,,,-99.99,FreeWX-Wi 1.01,2013-06-12 23:48:00,
2013-06-12 18:53:00,67.5,65.3,28.47,NNE,15,11.0,17.4,93,0.00,,,-99.99,FreeWX-Wi 1.01,2013-06-12 23:53:00,
2013-06-12 18:58:00,67.3,64.9,28.47,NNE,17,11.0,15.9,92,0.00,,,-99.99,FreeWX-Wi 1.01,2013-06-12 23:58:00,
2013-06-12 19:03:00,67.3,64.9,28.50,NNE,16,11.0,17.4,92,0.00,,,-99.99,FreeWX-Wi 1.01,2013-06-13 00:03:00,
2013-06-12 19:08:00,67.3,64.9,28.50,NNE,17,11.0,16.3,92,0.00,,,-99.99,FreeWX-Wi 1.01,2013-06-13 00:08:00,
2013-06-12 19:13:00,67.5,64.4,28.50,NNE,18,12.0,19.7,90,0.00,,,-99.99,FreeWX-Wi 1.01,2013-06-13 00:13:00,
2013-06-12 19:18:00,67.6,64.0,28.50,NNE,22,12.0,24.2,88,0.00,,,-99.99,FreeWX-Wi 1.01,2013-06-13 00:18:00,
2013-06-12 19:24:00,67.6,64.0,28.50,NNE,24,12.0,19.2,88,0.00,,,-99.99,FreeWX-Wi 1.01,2013-06-13 00:24:00,
2013-06-12 19:29:00,67.5,64.0,28.50,NNE,23,12.0,19.7,89,0.00,,,-99.99,FreeWX-Wi 1.01,2013-06-13 00:29:00,
2013-06-12 19:34:00,67.1,64.4,28.50,NNE,23,13.0,18.8,91,0.00,,,-99.99,FreeWX-Wi 1.01,2013-06-13 00:34:00,
2013-06-12 19:39:00,66.9,64.6,28.50,NNE,20,13.0,16.8,92,0.00,,,-99.99,FreeWX-Wi 1.01,2013-06-13 00:39:00,
2013-06-12 19:44:00,66.7,64.9,28.50,NNE,16,12.0,15.4,94,0.00,,,-99.99,FreeWX-Wi 1.01,2013-06-13 00:44:00,
2013-06-12 19:49:00,66.6,65.1,28.50,NNE,12,12.0,12.8,95,0.00,,,-99.99,FreeWX-Wi 1.01,2013-06-13 00:49:00,
2013-06-12 19:54:00,66.6,65.3,28.50,North,11,12.0,12.0,96,0.00,,,-99.99,FreeWX-Wi 1.01,2013-06-13 00:54:00,
2013-06-12 19:59:00,66.6,65.3,28.50,North,9,12.0,12.0,96,0.00,,,-99.99,FreeWX-Wi 1.01,2013-06-13 00:59:00,
2013-06-12 20:04:00,66.4,65.5,28.52,North,9,12.0,12.0,97,0.00,,,-99.99,FreeWX-Wi 1.01,2013-06-13 01:04:00,
2013-06-12 20:09:00,66.2,65.3,28.52,North,8,11.0,13.6,97,0.00,,,-99.99,FreeWX-Wi 1.01,2013-06-13 01:09:00,
2013-06-12 20:14:00,66.0,65.5,28.52,North,1,11.0,14.5,98,0.00,,,-99.99,FreeWX-Wi 1.01,2013-06-13 01:14:00,
2013-06-12 20:20:00,66.0,65.5,28.52,North,357,10.0,11.0,98,0.00,,,-99.99,FreeWX-Wi 1.01,2013-06-13 01:20:00,
2013-06-12 20:25:00,66.0,65.5,28.52,North,351,9.0,10.5,98,0.00,,,-99.99,FreeWX-Wi 1.01,2013-06-13 01:25:00,
2013-06-12 20:30:00,66.0,65.5,28.52,NNW,348,8.0,10.5,98,0.00,,,-99.99,FreeWX-Wi 1.01,2013-06-13 01:30:00,
2013-06-12 20:35:00,66.0,65.5,28.55,North,350,8.0,13.2,98,0.00,,,-99.99,FreeWX-Wi 1.01,2013-06-13 01:35:00,
2013-06-12 20:40:00,66.0,65.5,28.55,North,350,8.0,12.3,98,0.00,,,-99.99,FreeWX-Wi 1.01,2013-06-13 01:40:00,
2013-06-12 20:45:00,66.0,65.5,28.55,North,351,8.0,15.4,98,0.00,,,-99.99,FreeWX-Wi 1.01,2013-06-13 01:45:00,
2013-06-12 20:50:00,66.0,65.5,28.55,North,350,8.0,11.0,98,0.00,,,-99.99,FreeWX-Wi 1.01,2013-06-13 01:50:00,
2013-06-12 20:55:00,66.0,65.5,28.55,North,351,8.0,11.0,98,0.00,,,-99.99,FreeWX-Wi 1.01,2013-06-13 01:55:00,
2013-06-12 21:00:00,65.8,65.3,28.55,North,351,8.0,11.0,98,0.00,,,-99.99,FreeWX-Wi 1.01,2013-06-13 02:00:00,
2013-06-12 21:05:00,65.8,65.3,28.55,NNW,348,7.0,14.5,98,0.00,,,-99.99,FreeWX-Wi 1.01,2013-06-13 02:05:00,
2013-06-12 21:10:00,65.8,65.3,28.55,NNW,348,7.0,13.2,98,0.00,,,-99.99,FreeWX-Wi 1.01,2013-06-13 02:10:00,
2013-06-12 21:15:00,65.8,65.3,28.55,North,350,7.0,11.4,98,0.00,,,-99.99,FreeWX-Wi 1.01,2013-06-13 02:15:00,
2013-06-12 21:21:00,65.8,65.3,28.55,North,351,7.0,11.0,98,0.00,,,-99.99,FreeWX-Wi 1.01,2013-06-13 02:21:00,
2013-06-12 21:26:00,65.7,65.1,28.55,North,352,7.0,10.1,98,0.00,,,-99.99,FreeWX-Wi 1.01,2013-06-13 02:26:00,
2013-06-12 21:31:00,65.7,65.1,28.55,North,354,7.0,12.3,98,0.00,,,-99.99,FreeWX-Wi 1.01,2013-06-13 02:31:00,
2013-06-12 21:36:00,65.7,65.1,28.55,North,359,7.0,11.0,98,0.00,,,-99.99,FreeWX-Wi 1.01,2013-06-13 02:36:00,
2013-06-12 21:41:00,65.8,65.3,28.55,North,2,7.0,12.8,98,0.00,,,-99.99,FreeWX-Wi 1.01,2013-06-13 02:41:00,
2013-06-12 21:46:00,65.8,65.3,28.58,North,3,7.0,8.1,98,0.00,,,-99.99,FreeWX-Wi 1.01,2013-06-13 02:46:00,
2013-06-12 21:51:00,65.8,64.9,28.58,North,5,6.0,7.2,97,0.00,,,-99.99,FreeWX-Wi 1.01,2013-06-13 02:51:00,
2013-06-12 21:56:00,65.7,64.8,28.58,North,3,6.0,7.6,97,0.00,,,-99.99,FreeWX-Wi 1.01,2013-06-13 02:56:00,
2013-06-12 22:02:00,65.5,64.6,28.58,North,358,5.0,5.8,97,0.00,,,-99.99,FreeWX-Wi 1.01,2013-06-13 03:02:00,
2013-06-12 22:07:00,65.5,64.6,28.58,North,352,4.0,5.8,97,0.00,,,-99.99,FreeWX-Wi 1.01,2013-06-13 03:07:00,
2013-06-12 22:12:00,65.5,64.6,28.58,NNW,347,4.0,8.3,97,0.00,,,-99.99,FreeWX-Wi 1.01,2013-06-13 03:12:00,
2013-06-12 22:17:00,65.5,64.6,28.58,NNW,344,4.0,7.6,97,0.00,,,-99.99,FreeWX-Wi 1.01,2013-06-13 03:17:00,
2013-06-12 22:22:00,65.5,64.6,28.58,NNW,345,4.0,4.0,97,0.00,,,-99.99,FreeWX-Wi 1.01,2013-06-13 03:22:00,
2013-06-12 22:27:00,65.5,64.9,28.58,NNW,345,4.0,0.0,98,0.00,,,-99.99,FreeWX-Wi 1.01,2013-06-13 03:27:00,
2013-06-12 22:32:00,65.5,64.9,28.58,NNW,345,4.0,0.0,98,0.00,,,-99.99,FreeWX-Wi 1.01,2013-06-13 03:32:00,
2013-06-12 22:37:00,65.3,64.8,28.58,NNW,345,4.0,0.0,98,0.00,,,-99.99,FreeWX-Wi 1.01,2013-06-13 03:37:00,